ASA118 UUYP-USDB

Flight info

Callsign ASA118
Flight time 1h 6m
Altitude 35000
Route ERGAV T791 ROLEK L251 LEPES W94 UNKOR UNKOR2G
Aircraft B77W/H-SDE1E2E3FGHIJ2J3J4J5M1RWXY/LB1D1

Departure

Time 2026-05-06 11:45
Airport Pechora Airport (UUYP)

Arrival

Time 2026-05-06 12:51
Airport Bovanenkovo Airport (USDB)
Time Latitude Longitude Altitude Speed Heading
2026-05-06 11:27 65.11705 57.13947 190 ft 0 kts 87°
2026-05-06 11:38 65.11705 57.13950 190 ft 1 kts 87°
2026-05-06 11:38 65.11705 57.13965 190 ft 1 kts 87°
2026-05-06 11:39 65.11706 57.13991 202 ft 2 kts 88°
2026-05-06 11:39 65.11704 57.14106 199 ft 5 kts 67°
2026-05-06 11:39 65.11735 57.14091 202 ft 6 kts 313°
2026-05-06 11:39 65.11753 57.13941 192 ft 14 kts 279°
2026-05-06 11:40 65.11754 57.13672 190 ft 19 kts 268°
2026-05-06 11:40 65.11750 57.13436 198 ft 16 kts 267°
2026-05-06 11:40 65.11746 57.13245 200 ft 7 kts 267°
2026-05-06 11:40 65.11746 57.13237 200 ft 0 kts 267°
2026-05-06 11:41 65.11745 57.13213 201 ft 5 kts 267°
2026-05-06 11:41 65.11776 57.13097 207 ft 13 kts 333°
2026-05-06 11:41 65.11911 57.13087 200 ft 26 kts
2026-05-06 11:42 65.12136 57.13099 200 ft 38 kts
2026-05-06 11:42 65.12433 57.13113 197 ft 47 kts
2026-05-06 11:42 65.12758 57.13172 201 ft 38 kts
2026-05-06 11:42 65.12791 57.13094 205 ft 6 kts 249°
2026-05-06 11:43 65.12780 57.13082 199 ft 2 kts 193°
2026-05-06 11:43 65.12749 57.13128 204 ft 11 kts 148°
2026-05-06 11:43 65.12720 57.13133 201 ft 8 kts 186°
2026-05-06 11:44 65.12698 57.13131 209 ft 0 kts 181°
2026-05-06 11:44 65.12697 57.13131 209 ft 0 kts 181°
2026-05-06 11:44 65.12485 57.13115 199 ft 87 kts 182°
2026-05-06 11:44 65.11465 57.13048 273 ft 189 kts 181°
2026-05-06 11:45 65.10181 57.13211 1790 ft 177 kts 182°
2026-05-06 11:45 65.08865 57.13421 2883 ft 207 kts 176°
2026-05-06 11:45 65.07344 57.14597 3453 ft 257 kts 156°
2026-05-06 11:45 65.05857 57.17365 4477 ft 283 kts 135°
2026-05-06 11:46 65.04873 57.21362 6195 ft 276 kts 111°
2026-05-06 11:46 65.04663 57.25774 7724 ft 271 kts 84°
2026-05-06 11:46 65.05290 57.30084 8558 ft 283 kts 53°
2026-05-06 11:46 65.06674 57.33333 9199 ft 285 kts 26°
2026-05-06 11:47 65.08310 57.35752 10288 ft 273 kts 22°
2026-05-06 11:47 65.09964 57.38205 10973 ft 285 kts 22°
2026-05-06 11:47 65.11672 57.40755 11571 ft 298 kts 23°
2026-05-06 11:47 65.13444 57.43445 12288 ft 309 kts 23°
2026-05-06 11:48 65.15370 57.46319 12499 ft 341 kts 23°
2026-05-06 11:48 65.17470 57.49361 12771 ft 371 kts 23°
2026-05-06 11:48 65.19800 57.52572 13039 ft 400 kts 21°
2026-05-06 11:48 65.22317 57.55852 13656 ft 417 kts 21°
2026-05-06 11:49 65.24897 57.59215 14509 ft 425 kts 21°
2026-05-06 11:49 65.27507 57.62662 15503 ft 430 kts 21°
2026-05-06 11:49 65.30130 57.66152 16495 ft 435 kts 21°
2026-05-06 11:49 65.32811 57.69732 17457 ft 442 kts 21°
2026-05-06 11:50 65.35451 57.73607 18307 ft 454 kts 28°
2026-05-06 11:50 65.37980 57.78270 19129 ft 465 kts 34°
2026-05-06 11:50 65.40360 57.83733 19966 ft 475 kts 41°
2026-05-06 11:50 65.42621 57.89490 20780 ft 481 kts 42°
2026-05-06 11:51 65.44901 57.95455 21588 ft 487 kts 43°
2026-05-06 11:51 65.47206 58.01529 22380 ft 493 kts 43°
2026-05-06 11:51 65.49539 58.07669 23156 ft 499 kts 42°
2026-05-06 11:51 65.51577 58.13008 23704 ft 503 kts 42°
2026-05-06 11:52 65.53041 58.16834 24114 ft 506 kts 42°
2026-05-06 11:52 65.55410 58.23016 24780 ft 510 kts 43°
2026-05-06 11:52 65.57863 58.29412 25440 ft 513 kts 43°
2026-05-06 11:52 65.60269 58.35696 26065 ft 518 kts 43°
2026-05-06 11:53 65.62757 58.42212 26681 ft 522 kts 43°
2026-05-06 11:53 65.65223 58.48692 27250 ft 527 kts 43°
2026-05-06 11:53 65.67726 58.55289 27846 ft 531 kts 43°
2026-05-06 11:53 65.70233 58.61923 28421 ft 535 kts 44°
2026-05-06 11:54 65.72741 58.68583 28988 ft 539 kts 44°
2026-05-06 11:54 65.75264 58.75302 29488 ft 544 kts 44°
2026-05-06 11:54 65.77822 58.82136 29920 ft 547 kts 44°
2026-05-06 11:54 65.80385 58.89006 30328 ft 550 kts 44°
2026-05-06 11:55 65.82956 58.95920 30751 ft 552 kts 44°
2026-05-06 11:55 65.85536 59.02880 31270 ft 551 kts 44°
2026-05-06 11:55 65.88107 59.09842 31878 ft 549 kts 44°
2026-05-06 11:55 65.90654 59.16761 32436 ft 547 kts 44°
2026-05-06 11:56 65.93194 59.23678 32973 ft 546 kts 44°
2026-05-06 11:56 65.95734 59.30617 33486 ft 546 kts 44°
2026-05-06 11:56 65.98260 59.37540 33917 ft 545 kts 44°
2026-05-06 11:56 66.00794 59.44504 34388 ft 542 kts 45°
2026-05-06 11:57 66.03293 59.51394 34868 ft 539 kts 45°
2026-05-06 11:57 66.05782 59.58282 35337 ft 537 kts 45°
2026-05-06 11:57 66.08263 59.65202 35621 ft 538 kts 45°
2026-05-06 11:57 66.10742 59.72158 35566 ft 540 kts 46°
2026-05-06 11:58 66.15658 59.86050 35565 ft 536 kts 46°
2026-05-06 11:58 66.20554 59.99952 35567 ft 534 kts 46°
2026-05-06 11:59 66.25430 60.13864 35559 ft 534 kts 46°
2026-05-06 11:59 66.30800 60.26376 35567 ft 526 kts 32°
2026-05-06 12:00 66.36936 60.35872 35559 ft 518 kts 20°
2026-05-06 12:00 66.43499 60.43300 35564 ft 518 kts 19°
2026-05-06 12:01 66.50040 60.51013 35564 ft 520 kts 20°
2026-05-06 12:01 66.56570 60.58939 35555 ft 521 kts 20°
2026-05-06 12:02 66.63099 60.66916 35557 ft 521 kts 20°
2026-05-06 12:02 66.69588 60.74864 35550 ft 521 kts 20°
2026-05-06 12:03 66.76108 60.82884 35553 ft 521 kts 20°
2026-05-06 12:03 66.82614 60.90932 35555 ft 521 kts 21°
2026-05-06 12:04 66.89123 60.99034 35549 ft 520 kts 21°
2026-05-06 12:04 66.95633 61.07185 35544 ft 520 kts 21°
2026-05-06 12:05 67.02109 61.15345 35543 ft 520 kts 21°
2026-05-06 12:05 67.08610 61.23584 35537 ft 519 kts 21°
2026-05-06 12:06 67.15129 61.31895 35535 ft 519 kts 21°
2026-05-06 12:06 67.21608 61.40206 35527 ft 519 kts 21°
2026-05-06 12:07 67.28073 61.48548 35530 ft 520 kts 21°
2026-05-06 12:07 67.34516 61.56914 35527 ft 520 kts 22°
2026-05-06 12:08 67.41013 61.65400 35528 ft 520 kts 22°
2026-05-06 12:08 67.47441 61.73848 35526 ft 520 kts 22°
2026-05-06 12:09 67.53895 61.82383 35520 ft 520 kts 22°
2026-05-06 12:09 67.60352 61.90975 35520 ft 520 kts 22°
2026-05-06 12:10 67.66815 61.99627 35518 ft 520 kts 22°
2026-05-06 12:10 67.73253 62.08300 35511 ft 520 kts 22°
2026-05-06 12:11 67.79695 62.17032 35513 ft 520 kts 22°
2026-05-06 12:11 67.86132 62.25811 35504 ft 520 kts 22°
2026-05-06 12:12 67.92559 62.34633 35507 ft 520 kts 23°
2026-05-06 12:12 67.98947 62.43456 35506 ft 520 kts 23°
2026-05-06 12:13 68.05368 62.52379 35499 ft 520 kts 23°
2026-05-06 12:13 68.11780 62.61348 35503 ft 520 kts 23°
2026-05-06 12:14 68.18227 62.70422 35505 ft 520 kts 23°
2026-05-06 12:14 68.23557 62.77967 35501 ft 521 kts 23°
2026-05-06 12:15 68.31010 62.88586 35503 ft 521 kts 24°
2026-05-06 12:15 68.37419 62.97781 35506 ft 521 kts 24°
2026-05-06 12:16 68.42736 63.05455 35506 ft 521 kts 24°
2026-05-06 12:16 68.49143 63.14758 35500 ft 521 kts 24°
2026-05-06 12:17 68.55527 63.24087 35503 ft 521 kts 24°
2026-05-06 12:17 68.61915 63.33482 35508 ft 521 kts 24°
2026-05-06 12:18 68.68290 63.42915 35511 ft 520 kts 24°
2026-05-06 12:18 68.74448 63.53318 35512 ft 523 kts 32°
2026-05-06 12:19 68.80191 63.65024 35492 ft 502 kts 33°
2026-05-06 12:19 68.85732 63.76592 35508 ft 498 kts 33°
2026-05-06 12:20 68.91279 63.88070 35517 ft 497 kts 33°
2026-05-06 12:20 68.96813 63.99496 35037 ft 492 kts 33°
2026-05-06 12:21 68.99564 64.05196 34558 ft 490 kts 33°
2026-05-06 12:21 69.02294 64.10867 34097 ft 489 kts 33°
2026-05-06 12:21 69.05017 64.16545 33645 ft 487 kts 33°
2026-05-06 12:21 69.07730 64.22223 33154 ft 484 kts 33°
2026-05-06 12:22 69.10418 64.27869 32679 ft 481 kts 32°
2026-05-06 12:22 69.13089 64.33498 32221 ft 478 kts 32°
2026-05-06 12:22 69.15739 64.39102 31765 ft 475 kts 32°
2026-05-06 12:22 69.18369 64.44678 31322 ft 473 kts 32°
2026-05-06 12:23 69.20993 64.50257 30894 ft 470 kts 32°
2026-05-06 12:23 69.23601 64.55822 30448 ft 468 kts 32°
2026-05-06 12:23 69.26157 64.61290 30035 ft 466 kts 32°
2026-05-06 12:23 69.28733 64.66818 29620 ft 463 kts 32°
2026-05-06 12:24 69.31291 64.72324 29175 ft 460 kts 32°
2026-05-06 12:24 69.33808 64.77761 28815 ft 455 kts 32°
2026-05-06 12:24 69.36314 64.83191 28470 ft 449 kts 32°
2026-05-06 12:24 69.38793 64.88574 27863 ft 449 kts 32°
2026-05-06 12:25 69.41267 64.93957 27228 ft 450 kts 33°
2026-05-06 12:25 69.43770 64.99419 26586 ft 451 kts 33°
2026-05-06 12:25 69.44902 65.01895 26300 ft 451 kts 33°
2026-05-06 12:25 69.47386 65.07344 25677 ft 451 kts 34°
2026-05-06 12:26 69.49872 65.12816 25065 ft 450 kts 34°
2026-05-06 12:26 69.52343 65.18273 24469 ft 449 kts 34°
2026-05-06 12:26 69.54811 65.23742 23879 ft 447 kts 35°
2026-05-06 12:26 69.57263 65.29189 23296 ft 445 kts 35°
2026-05-06 12:27 69.59700 65.34621 22634 ft 442 kts 36°
2026-05-06 12:27 69.62107 65.40002 21934 ft 439 kts 36°
2026-05-06 12:27 69.64516 65.45403 21256 ft 436 kts 36°
2026-05-06 12:27 69.66895 65.50751 20580 ft 433 kts 36°
2026-05-06 12:28 69.69238 65.56033 19928 ft 430 kts 36°
2026-05-06 12:28 69.71578 65.61323 19286 ft 426 kts 36°
2026-05-06 12:28 69.73903 65.66595 18658 ft 423 kts 36°
2026-05-06 12:28 69.76201 65.71820 18046 ft 420 kts 36°
2026-05-06 12:29 69.78515 65.77095 17477 ft 415 kts 36°
2026-05-06 12:29 69.80767 65.82247 16899 ft 409 kts 37°
2026-05-06 12:29 69.82977 65.87317 16361 ft 404 kts 37°
2026-05-06 12:29 69.85172 65.92365 15830 ft 400 kts 37°
2026-05-06 12:30 69.87338 65.97358 15288 ft 396 kts 37°
2026-05-06 12:30 69.89456 66.02250 14771 ft 392 kts 37°
2026-05-06 12:30 69.91602 66.07221 14258 ft 388 kts 37°
2026-05-06 12:30 69.93700 66.12098 13758 ft 384 kts 37°
2026-05-06 12:31 69.95692 66.17121 13244 ft 382 kts 44°
2026-05-06 12:31 69.97403 66.23034 12685 ft 380 kts 53°
2026-05-06 12:31 69.98795 66.29560 12148 ft 377 kts 59°
2026-05-06 12:31 70.00121 66.36113 11681 ft 372 kts 58°
2026-05-06 12:32 70.01440 66.42555 11233 ft 367 kts 58°
2026-05-06 12:32 70.02746 66.48908 10812 ft 362 kts 58°
2026-05-06 12:32 70.04036 66.55179 10398 ft 357 kts 58°
2026-05-06 12:32 70.05308 66.61368 9991 ft 352 kts 58°
2026-05-06 12:33 70.06562 66.67478 9582 ft 348 kts 58°
2026-05-06 12:33 70.07789 66.73481 9157 ft 344 kts 58°
2026-05-06 12:33 70.09017 66.79506 8726 ft 341 kts 58°
2026-05-06 12:33 70.10231 66.85475 8292 ft 338 kts 58°
2026-05-06 12:34 70.11431 66.91390 7849 ft 335 kts 58°
2026-05-06 12:34 70.12611 66.97220 7587 ft 327 kts 58°
2026-05-06 12:34 70.13760 67.02915 7345 ft 320 kts 58°
2026-05-06 12:34 70.14879 67.08474 7083 ft 313 kts 58°
2026-05-06 12:35 70.15975 67.13924 6849 ft 306 kts 58°
2026-05-06 12:35 70.17046 67.19276 6603 ft 300 kts 58°
2026-05-06 12:35 70.18083 67.24467 6367 ft 294 kts 58°
2026-05-06 12:35 70.19114 67.29676 6109 ft 288 kts 60°
2026-05-06 12:36 70.19666 67.35125 5836 ft 282 kts 87°
2026-05-06 12:36 70.19489 67.40882 5615 ft 273 kts 98°
2026-05-06 12:36 70.19226 67.46369 5368 ft 269 kts 98°
2026-05-06 12:36 70.18964 67.51801 5115 ft 266 kts 98°
2026-05-06 12:37 70.18707 67.57157 4871 ft 262 kts 97°
2026-05-06 12:37 70.18453 67.62445 4640 ft 258 kts 98°
2026-05-06 12:37 70.18203 67.67629 4437 ft 253 kts 98°
2026-05-06 12:37 70.17959 67.72715 4246 ft 247 kts 98°
2026-05-06 12:38 70.17723 67.77595 4020 ft 231 kts 97°
2026-05-06 12:38 70.17509 67.82029 3753 ft 210 kts 97°
2026-05-06 12:38 70.17304 67.86247 3534 ft 202 kts 97°
2026-05-06 12:38 70.17106 67.90321 3448 ft 199 kts 96°
2026-05-06 12:39 70.16917 67.94172 3323 ft 179 kts 96°
2026-05-06 12:39 70.16746 67.97649 3067 ft 157 kts 96°
2026-05-06 12:39 70.16597 68.00657 2858 ft 149 kts 94°
2026-05-06 12:39 70.16449 68.03707 2726 ft 153 kts 95°
2026-05-06 12:40 70.16295 68.06823 2554 ft 153 kts 94°
2026-05-06 12:40 70.16144 68.09897 2343 ft 150 kts 94°
2026-05-06 12:40 70.15992 68.12940 2171 ft 148 kts 94°
2026-05-06 12:40 70.15842 68.15941 1974 ft 147 kts 93°
2026-05-06 12:41 70.15694 68.18893 1847 ft 145 kts 93°
2026-05-06 12:41 70.15547 68.21832 1812 ft 146 kts 93°
2026-05-06 12:41 70.15399 68.24766 1750 ft 146 kts 94°
2026-05-06 12:41 70.15247 68.27751 1742 ft 145 kts 94°
2026-05-06 12:42 70.15099 68.30682 1732 ft 144 kts 94°
2026-05-06 12:42 70.14952 68.33585 1742 ft 144 kts 93°
2026-05-06 12:42 70.14806 68.36494 1736 ft 144 kts 93°
2026-05-06 12:42 70.14656 68.39419 1743 ft 144 kts 93°
2026-05-06 12:43 70.14505 68.42331 1754 ft 146 kts 94°
2026-05-06 12:43 70.14349 68.45306 1740 ft 148 kts 94°
2026-05-06 12:43 70.14194 68.48309 1743 ft 149 kts 94°
2026-05-06 12:43 70.14034 68.51382 1746 ft 150 kts 94°
2026-05-06 12:44 70.13885 68.54353 1725 ft 147 kts 90°
2026-05-06 12:44 70.14168 68.57006 1708 ft 133 kts 36°
2026-05-06 12:44 70.15006 68.58424 1742 ft 143 kts 33°
2026-05-06 12:44 70.15776 68.60149 1732 ft 137 kts 36°
2026-05-06 12:45 70.16523 68.61828 1731 ft 134 kts 35°
2026-05-06 12:45 70.17286 68.63504 1752 ft 139 kts 35°
2026-05-06 12:45 70.18851 68.66887 1736 ft 140 kts 34°
2026-05-06 12:46 70.19638 68.68572 1733 ft 139 kts 34°
2026-05-06 12:46 70.20418 68.70236 1730 ft 138 kts 34°
2026-05-06 12:46 70.21197 68.71841 1722 ft 135 kts 24°
2026-05-06 12:46 70.22091 68.71689 1762 ft 140 kts 332°
2026-05-06 12:47 70.22729 68.69511 1756 ft 145 kts 308°
2026-05-06 12:47 70.23133 68.67867 1729 ft 144 kts 311°
2026-05-06 12:47 70.23737 68.65484 1602 ft 144 kts 311°
2026-05-06 12:47 70.24325 68.63120 1529 ft 141 kts 310°
2026-05-06 12:48 70.24906 68.60754 1477 ft 143 kts 310°
2026-05-06 12:48 70.25488 68.58372 1441 ft 141 kts 310°
2026-05-06 12:48 70.26060 68.56022 1446 ft 141 kts 310°
2026-05-06 12:48 70.26628 68.53682 1447 ft 142 kts 311°
2026-05-06 12:49 70.27213 68.51276 1388 ft 145 kts 310°
2026-05-06 12:49 70.27796 68.48860 1255 ft 144 kts 310°
2026-05-06 12:49 70.28378 68.46434 1086 ft 142 kts 310°
2026-05-06 12:49 70.28914 68.43957 846 ft 143 kts 307°
2026-05-06 12:50 70.29447 68.41573 533 ft 138 kts 311°
2026-05-06 12:50 70.30027 68.39311 276 ft 136 kts 312°
2026-05-06 12:50 70.30603 68.37110 96 ft 136 kts 310°
2026-05-06 12:50 70.31109 68.34928 35 ft 116 kts 309°
2026-05-06 12:51 70.31473 68.33491 33 ft 55 kts 305°
2026-05-06 12:51 70.31626 68.32842 36 ft 20 kts 303°
2026-05-06 12:51 70.31703 68.32748 34 ft 12 kts 30°
2026-05-06 12:51 70.31769 68.32897 33 ft 12 kts 38°
2026-05-06 12:52 70.31841 68.33047 33 ft 9 kts 34°
2026-05-06 12:52 70.31849 68.33237 33 ft 12 kts 118°
2026-05-06 12:52 70.31825 68.33353 33 ft 0 kts 112°
2026-05-06 12:52 70.31816 68.33407 33 ft 6 kts 112°
2026-05-06 12:53 70.31820 68.33497 33 ft 2 kts 45°
2026-05-06 12:53 70.31831 68.33517 33 ft 0 kts 33°
2026-05-06 13:09 70.31831 68.33516 33 ft 0 kts 33°